Location: *
(38.1901°S, 79.8455°E)
Time: 00:48:03
(UTC+00:00)

Daily predictions for brighter satellites

Satellite Brightness Start Highest point End
(mag) Time Altitude Azimuth Time Altitude Azimuth Time Altitude Azimuth
Cosmos 2058 3.5 00:07:24 35° W 00:07:32 35° W 00:11:24 10° NNW
FALCON 9 DEB 3.5 00:07:36 34° SSW 00:08:39 52° SE 00:11:46 10° ENE
Cosmos 1850 Rocket 3.9 00:03:30 10° NNW 00:08:47 80° WSW 00:14:06 10° SSE
CZ-4B R/B 3.9 00:06:12 10° NNW 00:09:50 29° W 00:09:50 29° W
Cosmos 2227 4.1 00:08:08 10° NNW 00:13:47 81° WSW 00:19:31 10° SSE
SMAP 3.0 00:09:35 10° NNE 00:14:16 89° WNW 00:19:02 10° SSW
Cosmos 1092 Rocket 4.2 00:09:22 10° SSW 00:15:30 49° W 00:21:35 10° NNW
Gbstr 26 Del rocket 4.1 00:17:42 21° SW 00:18:13 21° SSW 00:21:20 10° SSE
Cosmos 2227 Rocket 4.1 00:20:37 11° SW 00:20:37 11° SW 00:21:33 10° SSW
Cosmos 1741 Rocket 4.0 00:15:04 10° NNW 00:20:20 66° WSW 00:25:41 10° SSE
Cosmos 2279 Rocket 3.9 00:14:10 10° N 00:20:26 80° W 00:26:46 10° S
Cosmos 2026 Rocket 4.1 00:16:57 10° SSW 00:23:01 54° W 00:28:57 10° NNW
H-2A R/B 4.1 00:19:33 10° NE 00:24:10 29° ESE 00:28:46 10° S
Cosmos 1633 2.5 00:20:55 10° SSW 00:24:36 69° W 00:28:13 10° N
SL-4 R/B 2.2 00:22:46 19° SW 00:25:35 61° SE 00:29:20 10° ENE
Cosmos 1812 Rocket 3.8 00:22:29 10° NNW 00:26:41 46° W 00:30:57 10° S
USA 229 DEB 3.6 00:22:50 11° SW 00:29:19 67° WNW 00:35:35 10° NNE
USA 229 3.5 00:22:54 11° SW 00:29:25 68° WNW 00:35:41 10° NNE
FengYun 1-2 T 4.2 00:24:01 10° N 00:29:40 77° WNW 00:35:23 10° SSW
CZ-4B DEB 4.4 00:26:10 10° N 00:31:36 54° W 00:37:05 10° SSW
Cosmos 1939 Rocket 2.8 00:28:12 10° NNE 00:32:08 86° ESE 00:36:12 10° S
Aureole 1 Rocket 4.4 00:30:50 10° NNW 00:37:44 70° WSW 00:46:06 10° SSE
Spot 2 4.2 00:33:25 10° NNE 00:37:51 85° WNW 00:42:37 10° SSW
H-2A R/B 2.5 00:33:40 10° SSE 00:37:56 67° ENE 00:42:15 10° N
DELTA 2 R/B (1) 3.6 00:34:02 17° WSW 00:38:29 89° NNW 00:44:08 10° ENE
DEBRIS 3.9 00:32:45 10° NW 00:38:32 43° NNE 00:41:01 10° ESE
COSMO-SKYMED 1 3.0 00:35:16 10° SSE 00:39:41 67° ENE 00:44:01 10° N
Meteor 2-21 4.5 00:34:43 10° S 00:40:56 88° W 00:47:01 10° N
X-37B 2.1 00:38:50 15° SW 00:40:57 28° SSE 00:43:48 10° ESE
CZ-2C R/B 3.2 00:35:37 10° NNE 00:41:12 89° ESE 00:46:32 10° SSW
CZ-3 R/B 3.2 00:28:58 10° WNW 00:43:10 39° N 00:48:09 10° ENE
Cosmos 1766 Rocket 4.4 00:41:45 10° S 00:46:09 55° E 00:50:25 10° NNE
FALCON 9 DEB 3.5 00:45:13 15° WSW 00:47:33 42° NW 00:50:35 10° NNE
Cosmos 2266 Rocket 4.4 00:41:38 10° S 00:48:02 72° E 00:54:26 10° NNE
CZ-4B R/B 3.3 00:45:39 10° SSE 00:48:47 35° E 00:51:57 10° NNE
Landsat 5 4.1 00:45:14 10° S 00:49:32 42° WSW 00:53:48 10° NW
NOSS 3-1 (A) 3.5 00:43:48 10° SW 00:49:32 47° WNW 00:54:32 10° N
Meteor 2-3 Rocket 3.8 00:43:43 10° SSW 00:49:34 73° W 00:55:23 10° N
Meteor 2-14 Rocket 4.4 00:43:49 10° S 00:50:01 77° W 00:56:06 10° N
FALCON 9 DEB 3.7 00:48:44 14° WSW 00:51:08 35° NW 00:54:03 10° NNE
Cosmos 921 Rocket 3.5 00:48:29 10° S 00:53:01 68° ESE 00:57:31 10° NNE
IRIDIUM 104 4.5 00:48:14 10° N 00:53:29 86° E 00:58:49 10° S
CORIOLIS 4.5 00:48:24 10° N 00:53:33 46° W 00:58:48 10° SSW
Okean O Rocket 1.6 00:49:46 10° N 00:54:07 65° WNW 00:58:33 10° SSW
YAOGAN 1 4.4 00:51:28 10° NE 00:55:20 32° ESE 00:59:15 10° S
Cosmos 1763 Rocket 4.1 00:50:44 10° SW 00:55:33 36° W 01:00:18 10° NNW
H-2A R/B 2.5 00:51:49 10° N 00:56:06 63° W 01:00:15 10° SSW
Cosmos 1603 3.8 00:52:27 10° SSW 00:58:11 68° WNW 01:03:53 10° N
Meteor 1-4 Rocket 3.2 00:55:22 10° NW 00:58:36 32° WSW 01:01:50 10° SSW
NOSS 3-1 (C) 4.5 00:54:43 10° WSW 00:58:54 21° WNW 01:02:43 10° NNW
Meteor 1-27 4.3 00:55:12 10° NNW 01:00:41 60° W 01:06:17 10° S
IRIDIUM 114 4.3 00:57:24 10° N 01:02:39 78° W 01:07:58 10° S
CZ-4C R/B 4.2 01:01:46 10° SSW 01:04:33 22° WSW 01:07:15 10° WNW
USA 215 3.4 00:59:55 10° SE 01:06:22 57° SW 01:12:46 10° WNW
MOS 1 Rocket 4.4 01:01:46 10° S 01:06:33 31° WSW 01:11:17 10° NW
Cosmos 841 Rocket 3.6 01:04:39 10° SSW 01:09:54 60° WNW 01:15:05 10° N
Okean-O 4.2 01:06:12 10° NE 01:10:18 37° ESE 01:14:27 10° S
Cosmos 1869 3.7 01:06:39 10° NNW 01:10:35 44° W 01:14:36 10° S
Cosmos 2263 Rocket 3.2 01:06:10 10° WNW 01:10:49 25° WSW 01:15:31 10° S
Cosmos-2242 4.0 01:07:03 10° NW 01:10:50 27° WSW 01:14:41 10° SSW
IRIDIUM 103 4.4 01:06:35 10° NNW 01:11:47 63° W 01:17:03 10° S
Cosmos 1844 Rocket 3.1 01:06:23 10° NNW 01:12:02 72° ENE 01:17:44 10° SSE
